TDRS 6

Last updated on Wed Sep 17 2025 00:02:40 GMT+0000 (Coordinated Universal Time)

1 22314U 93003B 25259.39776939 -.00000307 00000+0 00000+0 0 9992 2 22314 14.1769 359.0705 0011271 189.2127 264.7235 1.00269549119661
UTC large
Height (km)
Speed (km/s)
/
Latitude / Longitude
Inclination (degrees)
Orbital Period (minutes)
Azimuth
Elevation
Range (km)
Doppler Factor

Next 0 passes for location: London (51.5072 / 0.1276)

Sorry there are no passes over London.